[[{"header":{"parameterUnit":"m.s-1","parameterCategory":1,"la1":30.2991,"la2":30.254,"lo1":-89.0895,"lo2":-89.0444,"dy":0.0017,"dx":0.0017,"nx":28,"ny":28,"refTime":"2024-10-01T21:00:00:Z","depth":0,"parameterNumber":2,"parameterNumberName":"U-component_of_WINDS"},"data":[0,0,0,0,0,0,0,0,0,0,0,0,0,0,0,0,0,0,0,0,0,0,0,0,0,0,0,0,0,0,0,0,0,0,0,0,0,0,0,0,0,0,0,0,0,0,0,0,0,0,0,0,0,0,0,0,0,0,-2.1004,-2.1004,0,-2.0991,-2.0991,-2.0991,-2.0957,-2.0957,-2.0956,-2.0955,-2.0942,-2.0943,-2.0943,0,0,0,0,0,0,0,0,0,0,0,0,0,-2.1001,-2.1002,-2.1004,-2.1004,-2.1004,-2.0991,-2.0991,-2.0991,-2.0957,-2.0957,-2.0956,-2.0955,-2.0942,-2.0943,-2.0943,0,0,0,0,0,0,0,0,0,0,0,0,0,-2.0997,-2.1002,-2.1004,-2.0986,-2.0984,-2.0991,-2.0991,-2.0991,-2.0958,-2.0957,-2.0956,-2.0955,-2.0942,-2.0943,-2.0943,-2.0967,0,0,-2.0945,-2.0945,0,0,0,0,0,0,0,0,-2.0997,-2.0997,-2.0989,-2.0987,-2.0985,-2.0975,-2.0985,-2.0983,-2.0958,-2.0968,-2.0955,-2.0954,-2.0954,-2.0953,-2.0953,-2.0967,-2.0966,-2.0945,-2.0945,-2.0945,-2.0945,0,0,0,0,0,0,0,-2.0998,-2.0997,-2.0999,-2.0989,-2.0986,-2.0978,-2.0977,-2.0984,-2.0967,-2.0967,-2.0964,-2.0963,-2.0953,-2.0953,-2.0953,-2.0966,-2.0945,-2.0945,-2.0945,-2.0946,-2.0999,-2.1,0,0,0,0,0,0,-2.1,-2.0998,-2.0999,-2.0998,-2.0989,-2.0979,-2.0977,-2.0979,-2.0967,-2.0964,-2.0964,-2.0962,-2.0953,-2.0952,-2.0952,-2.0981,-2.0945,-2.0946,-2.0946,-2.0998,-2.1,-2.1001,0,0,0,0,0,0,-2.1,-2.1001,-2.1,-2.0998,-2.0997,-2.098,-2.0983,-2.0979,-2.0979,-2.0965,-2.0962,-2.0967,-2.0952,-2.0952,-2.0964,-2.098,-2.0946,-2.0946,-2.0997,-2.0999,-2.1,-2.1037,0,0,0,0,0,0,-2.1001,-2.1001,-2.101,-2.0998,-2.0997,-2.1012,-2.0984,-2.098,-2.098,-2.0977,-2.0967,-2.0964,-2.0951,-2.0963,-2.0964,-2.098,-2.0947,-2.0995,-2.0998,-2.1,-2.1034,-2.104,-2.1044,0,0,0,0,0,-2.1001,-2.1021,-2.101,-2.1011,-2.1008,-2.1013,-2.1012,-2.0996,-2.0982,-2.0991,-2.0981,-2.0965,-2.0978,-2.0965,-2.0966,-2.0981,-2.0994,-2.0997,-2.0999,-2.1032,-2.1039,-2.1044,0,0,0,0,0,0,-2.1035,-2.1019,-2.1007,-2.1024,-2.102,-2.1007,-2.1018,-2.1004,-2.1004,-2.1001,-2.0981,-2.0979,-2.0994,-2.0989,-2.0975,-2.1005,-2.0983,-2.0986,-2.1008,-2.1014,-2.1019,-2.102,-2.0947,0,0,0,0,0,-2.1044,-2.105,-2.1035,-2.1051,-2.105,-2.1034,-2.1036,-2.1024,-2.1019,-2.1017,-2.1009,-2.1005,-2.1008,-2.101,-2.1012,-2.1033,-2.1031,-2.1044,-2.1049,-2.1053,-2.1057,-2.1068,-2.1074,-2.1009,-2.1009,-2.1009,0,0,-2.1064,-2.1056,-2.1061,-2.1058,-2.1054,-2.106,-2.1033,-2.1041,-2.1045,-2.1018,-2.103,-2.1023,-2.1018,-2.1035,-2.1042,-2.1031,-2.1074,-2.1057,-2.106,-2.1061,-2.1071,-2.1078,-2.1083,-2.1011,-2.1011,-2.101,0,0,-2.1104,-2.1098,-2.1111,-2.1107,-2.11,-2.109,-2.1093,-2.1082,-2.1077,-2.1088,-2.1068,-2.1074,-2.1079,-2.1076,-2.1076,-2.1114,-2.11,-2.1115,-2.1142,-2.1154,-2.1159,-2.1163,-2.1178,-2.1184,-2.1118,-2.1118,-2.1118,0,-2.1129,-2.1138,-2.112,-2.1129,-2.1129,-2.1104,-2.1118,-2.1115,-2.111,-2.1111,-2.1098,-2.1105,-2.1099,-2.1116,-2.1125,-2.1125,-2.1129,-2.1117,-2.116,-2.1164,-2.1168,-2.1182,-2.1188,-2.112,-2.112,-2.112,-2.112,0,-2.117,-2.1176,-2.1188,-2.1184,-2.1185,-2.1196,-2.118,-2.1183,-2.1171,-2.1162,-2.1174,-2.1167,-2.1167,-2.117,-2.1158,-2.1185,-2.1178,-2.1163,-2.1141,-2.1176,-2.119,-2.1195,-2.1123,-2.1123,-2.1122,-2.1122,0,0,-2.1232,-2.1217,-2.1222,-2.122,-2.1211,-2.1216,-2.1226,-2.1226,-2.123,-2.1227,-2.1236,-2.1241,-2.1227,-2.1226,-2.1214,-2.1224,-2.1257,-2.1207,-2.1207,-2.1218,-2.1287,-2.13,-2.1306,-2.1246,-2.1247,-2.1248,-2.1288,0,-2.127,-2.1287,-2.1271,-2.1292,-2.1298,-2.1275,-2.1284,-2.128,-2.1272,-2.1276,-2.1266,-2.1271,-2.1252,-2.1251,-2.126,-2.1251,-2.1271,-2.1248,-2.1255,-2.1256,-2.1259,-2.1313,-2.1326,-2.1365,-2.1293,-2.1294,-2.1294,0,-2.1317,-2.1317,-2.1338,-2.1328,-2.133,-2.1339,-2.1338,-2.1342,-2.1337,-2.133,-2.133,-2.1315,-2.1325,-2.1303,-2.1317,-2.1302,-2.1304,-2.13,-2.1301,-2.1302,-2.1278,-2.1317,-2.1376,-2.1383,-2.1302,-2.1301,-2.1301,0,-2.1361,-2.1366,-2.1379,-2.1378,-2.1367,-2.1374,-2.1369,-2.1363,-2.1365,-2.1364,-2.1365,-2.1366,-2.1366,-2.1367,-2.1353,-2.1338,-2.137,-2.1346,-2.1365,-2.1366,-2.1374,-2.1374,-2.1436,-2.1373,-2.1373,-2.1373,-2.1373,0,-2.1407,-2.1421,-2.1399,-2.1408,-2.1423,-2.1405,-2.1421,-2.1414,-2.1409,-2.1416,-2.1395,-2.1402,-2.1382,-2.1388,-2.1376,-2.1391,-2.1391,-2.1386,-2.1384,-2.1389,-2.139,-2.1391,-2.1389,-2.1375,-2.1374,-2.1374,-2.1374,0,-2.1459,-2.1445,-2.1459,-2.1447,-2.1444,-2.1456,-2.1446,-2.1454,-2.1444,-2.1454,-2.1455,-2.144,-2.1445,-2.1431,-2.1433,-2.1426,-2.1447,-2.1439,-2.1449,-2.1447,-2.1468,-2.1466,-2.1534,-2.1542,-2.1473,-2.1473,-2.1474,0,-2.149,-2.15,-2.149,-2.1493,-2.149,-2.1495,-2.1497,-2.1479,-2.1482,-2.1477,-2.1485,-2.1489,-2.1491,-2.15,-2.149,-2.1492,-2.1485,-2.1508,-2.1485,-2.1491,-2.1487,-2.1487,-2.1489,-2.1513,-2.1514,-2.1515,-2.1515,0,-2.1546,-2.1539,-2.1541,-2.1542,-2.1545,-2.1544,-2.1543,-2.1547,-2.1528,-2.1532,-2.1537,-2.1538,-2.1541,-2.1545,-2.1545,-2.1541,-2.1526,-2.1523,-2.1527,-2.1534,-2.154,-2.1538,-2.1463,-2.1522,-2.1521,-2.152,-2.152,-2.152,-2.1589,-2.1598,-2.1592,-2.1596,-2.1593,-2.1592,-2.1599,-2.159,-2.1594,-2.1595,-2.1584,-2.1592,-2.1587,-2.1586,-2.1583,-2.1589,-2.1578,-2.1585,-2.1587,-2.1589,-2.1594,-2.1538,-2.1589,-2.1589,-2.1588,-2.1588,-2.1588,0,-2.1646,-2.1641,-2.1645,-2.1643,-2.1647,-2.1631,-2.1629,-2.1633,-2.164,-2.1636,-2.1639,-2.1645,-2.1649,-2.1639,-2.1641,-2.1648,-2.1641,-2.165,-2.165,-2.1649,-2.1602,-2.1598,-2.1655,-2.1655,-2.1655,-2.1655,-2.1655,-2.1655,-2.1675,-2.169,-2.1682,-2.1694,-2.1689,-2.1697,-2.1697,-2.1696,-2.1693,-2.1701,-2.1704,-2.1698,-2.1692,-2.1694,-2.1697,-2.1694,-2.1696,-2.1708,-2.1702,-2.1659,-2.1652,-2.1646,-2.1643,-2.1708,-2.1708,-2.1749,-2.1749,-2.175]},{"header":{"parameterUnit":"m.s-1","parameterCategory":1,"la1":30.2991,"la2":30.254,"lo1":-89.0895,"lo2":-89.0444,"dy":0.0017,"dx":0.0017,"nx":28,"ny":28,"refTime":"2024-10-01T21:00:00:Z","depth":0,"parameterNumber":3,"parameterNumberName":"V-component_of_WINDS"},"data":[0,0,0,0,0,0,0,0,0,0,0,0,0,0,0,0,0,0,0,0,0,0,0,0,0,0,0,0,0,0,0,0,0,0,0,0,0,0,0,0,0,0,0,0,0,0,0,0,0,0,0,0,0,0,0,0,0,0,-2.8242,-2.8242,0,-2.8247,-2.8247,-2.8247,-2.8213,-2.8212,-2.8212,-2.8211,-2.8215,-2.8215,-2.8216,0,0,0,0,0,0,0,0,0,0,0,0,0,-2.8203,-2.8203,-2.8242,-2.8242,-2.8242,-2.8247,-2.8247,-2.8247,-2.8214,-2.8212,-2.8211,-2.821,-2.8214,-2.8215,-2.8217,0,0,0,0,0,0,0,0,0,0,0,0,0,-2.8215,-2.8204,-2.8242,-2.8226,-2.8225,-2.8247,-2.8247,-2.8247,-2.8214,-2.8212,-2.8211,-2.821,-2.8214,-2.8215,-2.8217,-2.8254,0,0,-2.8221,-2.8222,0,0,0,0,0,0,0,0,-2.8214,-2.8216,-2.8228,-2.8227,-2.8226,-2.8228,-2.8234,-2.8249,-2.8214,-2.8218,-2.8211,-2.8209,-2.822,-2.8221,-2.8225,-2.8254,-2.8254,-2.8221,-2.8222,-2.8223,-2.8223,0,0,0,0,0,0,0,-2.8213,-2.8216,-2.8244,-2.8229,-2.8227,-2.8218,-2.8218,-2.8237,-2.8227,-2.8217,-2.8215,-2.8216,-2.8219,-2.8224,-2.8225,-2.8254,-2.8221,-2.8223,-2.8223,-2.8224,-2.8315,-2.8317,0,0,0,0,0,0,-2.8215,-2.8215,-2.8244,-2.8244,-2.8216,-2.822,-2.822,-2.8229,-2.8227,-2.8225,-2.8217,-2.8215,-2.8222,-2.8223,-2.8225,-2.8269,-2.8223,-2.8224,-2.8225,-2.8314,-2.8316,-2.8317,0,0,0,0,0,0,-2.8214,-2.8218,-2.8243,-2.8229,-2.8232,-2.8222,-2.8232,-2.823,-2.8234,-2.8226,-2.8224,-2.8224,-2.8221,-2.8223,-2.8247,-2.8269,-2.8225,-2.8226,-2.8312,-2.8314,-2.8317,-2.8358,0,0,0,0,0,0,-2.8213,-2.8218,-2.8232,-2.823,-2.8233,-2.8266,-2.8233,-2.8231,-2.8237,-2.8233,-2.8232,-2.8231,-2.822,-2.8245,-2.8249,-2.827,-2.8227,-2.831,-2.8313,-2.8316,-2.8355,-2.8361,-2.8367,0,0,0,0,0,-2.8212,-2.8243,-2.8233,-2.8236,-2.825,-2.8268,-2.8269,-2.8257,-2.8239,-2.8253,-2.8248,-2.8231,-2.8266,-2.8248,-2.8252,-2.8274,-2.8309,-2.8312,-2.8316,-2.8352,-2.836,-2.8367,0,0,0,0,0,0,-2.8247,-2.8242,-2.8231,-2.8262,-2.8266,-2.8262,-2.828,-2.8266,-2.8274,-2.827,-2.8253,-2.8254,-2.8281,-2.828,-2.826,-2.831,-2.8284,-2.8288,-2.831,-2.8318,-2.8324,-2.8324,-2.8229,0,0,0,0,0,-2.8259,-2.8274,-2.8268,-2.8297,-2.8299,-2.8289,-2.8296,-2.8286,-2.8289,-2.829,-2.8287,-2.829,-2.8301,-2.8309,-2.832,-2.8354,-2.8354,-2.8371,-2.8377,-2.8382,-2.8387,-2.8405,-2.8413,-2.8329,-2.8329,-2.8329,0,0,-2.8283,-2.8282,-2.8292,-2.8304,-2.8305,-2.8321,-2.829,-2.8308,-2.832,-2.8292,-2.8316,-2.8314,-2.8316,-2.8346,-2.8359,-2.8345,-2.841,-2.8387,-2.8391,-2.8392,-2.841,-2.8418,-2.8425,-2.8331,-2.8331,-2.833,0,0,-2.8335,-2.8335,-2.836,-2.8362,-2.8365,-2.8358,-2.8364,-2.8362,-2.836,-2.8383,-2.8363,-2.8376,-2.8397,-2.8399,-2.8403,-2.8457,-2.8441,-2.846,-2.8494,-2.8512,-2.8519,-2.8525,-2.8545,-2.8552,-2.8464,-2.8465,-2.8465,0,-2.8364,-2.8388,-2.8374,-2.8393,-2.8399,-2.8375,-2.84,-2.8402,-2.8408,-2.8412,-2.8397,-2.8423,-2.8423,-2.8453,-2.8467,-2.847,-2.8476,-2.8461,-2.8519,-2.8525,-2.853,-2.8549,-2.8556,-2.8467,-2.8467,-2.8466,-2.8466,0,-2.8424,-2.8441,-2.8459,-2.8467,-2.8474,-2.8496,-2.8485,-2.8495,-2.8484,-2.8479,-2.8503,-2.8502,-2.8512,-2.8518,-2.8507,-2.8547,-2.8539,-2.8522,-2.8495,-2.8541,-2.8558,-2.8565,-2.847,-2.847,-2.8469,-2.8468,0,0,-2.8499,-2.8499,-2.8506,-2.8509,-2.8511,-2.8523,-2.8543,-2.8554,-2.8563,-2.8567,-2.8584,-2.8602,-2.8587,-2.8591,-2.858,-2.8597,-2.864,-2.8577,-2.8577,-2.859,-2.8685,-2.8699,-2.8708,-2.8629,-2.8631,-2.8632,-2.8685,0,-2.8551,-2.8587,-2.8575,-2.8611,-2.8627,-2.8604,-2.8622,-2.8625,-2.8621,-2.8633,-2.8628,-2.8641,-2.8619,-2.8621,-2.8636,-2.8632,-2.8659,-2.8627,-2.8646,-2.8646,-2.8647,-2.8716,-2.8731,-2.8782,-2.8692,-2.8693,-2.8694,0,-2.8616,-2.8625,-2.8663,-2.8662,-2.8668,-2.8685,-2.8694,-2.8705,-2.8708,-2.8703,-2.8709,-2.8695,-2.8715,-2.8688,-2.8716,-2.8694,-2.8701,-2.87,-2.8701,-2.8703,-2.8674,-2.8721,-2.8797,-2.8806,-2.8704,-2.8703,-2.8703,0,-2.8669,-2.8689,-2.8715,-2.8718,-2.8718,-2.873,-2.873,-2.8732,-2.8739,-2.8746,-2.8751,-2.876,-2.8766,-2.8773,-2.8762,-2.8743,-2.8792,-2.8764,-2.8789,-2.879,-2.8801,-2.8801,-2.8881,-2.8804,-2.8804,-2.8803,-2.8803,0,-2.8728,-2.8753,-2.8739,-2.8755,-2.8781,-2.8767,-2.8794,-2.8791,-2.8793,-2.8808,-2.8789,-2.8803,-2.8787,-2.88,-2.8791,-2.8816,-2.8818,-2.8816,-2.8813,-2.8818,-2.8819,-2.8823,-2.8819,-2.8805,-2.8805,-2.8805,-2.8804,0,-2.8792,-2.8783,-2.881,-2.8808,-2.8808,-2.8828,-2.8825,-2.884,-2.8834,-2.8854,-2.8857,-2.8848,-2.8863,-2.8852,-2.8866,-2.886,-2.8893,-2.8885,-2.8892,-2.8891,-2.8917,-2.8915,-2.9003,-2.9015,-2.893,-2.893,-2.8931,0,-2.8831,-2.8849,-2.8849,-2.8858,-2.886,-2.8875,-2.8882,-2.8869,-2.8877,-2.8882,-2.8896,-2.8909,-2.8918,-2.8942,-2.8937,-2.8947,-2.894,-2.897,-2.8941,-2.8946,-2.8942,-2.8941,-2.8943,-2.8976,-2.8977,-2.8978,-2.8979,0,-2.8902,-2.8897,-2.8909,-2.8919,-2.8929,-2.8936,-2.8942,-2.8951,-2.8937,-2.8947,-2.8962,-2.8969,-2.8984,-2.8997,-2.9006,-2.9006,-2.899,-2.8988,-2.8994,-2.9,-2.9004,-2.9003,-2.8909,-2.8986,-2.8985,-2.8985,-2.8984,-2.8984,-2.8955,-2.8971,-2.8974,-2.8988,-2.8991,-2.8997,-2.9011,-2.9007,-2.9019,-2.903,-2.9021,-2.9039,-2.9041,-2.9051,-2.9053,-2.9067,-2.9055,-2.9064,-2.9067,-2.9069,-2.9074,-2.9001,-2.9068,-2.9068,-2.9068,-2.9068,-2.9067,0,-2.9026,-2.9027,-2.904,-2.9049,-2.906,-2.9045,-2.905,-2.9061,-2.9077,-2.908,-2.909,-2.9107,-2.912,-2.9116,-2.9127,-2.9139,-2.9132,-2.9142,-2.9142,-2.9142,-2.9084,-2.9077,-2.9147,-2.9147,-2.9147,-2.9147,-2.9147,-2.9147,-2.9064,-2.9091,-2.9086,-2.9113,-2.9114,-2.9132,-2.9136,-2.9142,-2.9145,-2.9165,-2.9176,-2.9173,-2.9173,-2.9184,-2.9195,-2.9193,-2.9199,-2.9212,-2.9208,-2.9154,-2.9146,-2.9138,-2.9132,-2.9213,-2.9213,-2.9265,-2.9266,-2.9266]}]]